www.pogodaiklimat.ru

Погода и климат >> Архив погоды >> Россия >> Красноярский край >> Остров Диксон


АРХИВ ПОГОДЫ на Острове Диксон

Время (UTC), дата Ветер
(напр.,м/с)
 
Видим.   Явления Облачность Т
(С)
Тd
(С)
f
(%)
Тe
(С)
Тes
(С)
Комфортность P
(гПа)
Po
(гПа)
Тmin
(С)
Tmax
(С)
R
(мм)
R24
(мм)
S
(см)
06 9.01 Ю 2 20 км ясно -34.0 -37.2 73 -42 -42 опасность
обморожения
1002.4 995.7
09 9.01 Ю 3 20 км ясно -35.6 -39.0 71 -46 -46 опасность
обморожения
1003.4 996.7
12 9.01 ЮВ 3 20 км ясно -34.9 -38.3 71 -46 -46 опасность
обморожения
1004.4 997.7 -31.1
15 9.01 В 2 20 км ясно -34.8 -38.2 71 -43 -43 опасность
обморожения
1004.6 997.9
18 9.01 ЮВ 2 20 км ясно -34.7 -38.1 71 -43 -43 опасность
обморожения
1005.0 998.3
21 9.01 Ю 3 20 км ясно -34.0 -37.3 72 -44 -44 опасность
обморожения
1005.6 998.9
00 10.01 Ю 2 20 км ясно -33.4 -36.7 72 -41 -41 опасность
обморожения
1005.6 999.0 -35.5 75
03 10.01 ЮВ 2 20 км ясно -35.2 -38.6 71 -44 -44 опасность
обморожения
1005.9 999.2
06 10.01 ЮВ 3 20 км 1/0
[Ci fib]
-34.2 -37.6 71 -45 -45 опасность
обморожения
1006.4 999.7
09 10.01 СВ 2 20 км 4/0
[Ci fib]
-34.8 -38.2 71 -43 -43 опасность
обморожения
1007.3 1000.6
12 10.01 В 3 20 км 3/0
[Ci fib]
-35.1 -38.5 71 -46 -46 опасность
обморожения
1009.1 1001.7 -33.4
15 10.01 В 3 20 км ясно -35.5 -39.0 70 -46 -46 опасность
обморожения
1009.2 1001.8
18 10.01 ЮВ 2 20 км ясно -38.6 -42.3 68 -48 -48 опасность
обморожения
1009.5 1002.7
21 10.01 ЮВ 3 20 км ясно -38.9 -42.6 68 -50 -50 опасность
обморожения
1010.4 1003.6
00 11.01 ЮВ 4 20 км ясно -38.7 -42.3 69 -52 -52 опасность
обморожения
1011.3 1004.5 -39.2 75
03 11.01 Ю 3 20 км ясно -38.3 -42.0 68 -50 -50 опасность
обморожения
1012.5 1005.7
06 11.01 Ю 3 20 км ясно -38.7 -42.3 69 -50 -50 опасность
обморожения
1013.3 1006.4
09 11.01 Ю 4 20 км ясно -38.1 -41.7 69 -51 -51 опасность
обморожения
1014.6 1007.8
12 11.01 Ю 4 20 км ясно -38.3 -41.9 69 -51 -51 опасность
обморожения
1015.3 1008.5 -37.6
15 11.01 Ю 5 20 км ясно -37.4 -40.9 70 -52 -52 опасность
обморожения
1015.7 1008.9
18 11.01 Ю 5 20 км ясно -37.3 -40.9 69 -52 -52 опасность
обморожения
1016.1 1009.3
21 11.01 Ю 6 20 км позёмок ясно -36.7 -40.2 70 -52 -52 опасность
обморожения
1016.3 1009.5
00 12.01 Ю 4 20 км {метель} ясно -36.2 -39.7 70 -49 -49 опасность
обморожения
1016.2 1009.4 -38.5 75
03 12.01 Ю 5 20 км {метель} ясно -35.2 -38.7 70 -49 -49 опасность
обморожения
1016.2 1009.4
06 12.01 Ю 6 4000 м позёмок 1/0
[Ci fib]
-34.3 -37.7 71 -49 -49 опасность
обморожения
1015.5 1008.8
09 12.01 Ю 6
{10}
2000 м позёмок 3/0
[Ci fib]
-32.5 -35.8 72 -47 -47 опасность
обморожения
1014.6 1007.9
12 12.01 Ю 8-11
{12}
2000 м позёмок 8/0
[Ci fib]
-30.5 -33.5 75 -46 -46 опасность
обморожения
1012.5 1005.9 -30.5
15 12.01 Ю 11-14
{16}
2000 м метель 8/0
[Ci fib]
-27.1 -30.0 76 -44 -44 опасность
обморожения
1010.0 1003.5
18 12.01 Ю 12-17
{17}
1000 м метель 8/0
[Ci fib]
-25.5 -28.4 77 -42 -42 опасность
обморожения
1007.0 1000.6
21 12.01 Ю 11-14
{16}
2000 м метель 8/0
[Ci fib]
-27.1 -30.0 76 -44 -44 опасность
обморожения
1010.0 1003.5
00 13.01 Ю 17-23
{23}
200 м сильная метель ?/? -26.9 -28.6 85 -46 -46 опасность
обморожения
1003.3 996.8 -30.5 0.6 77
03 13.01 Ю 14-20
{23}
200 м сильная метель ?/? -27.0 -28.8 85 -45 -45 опасность
обморожения
1002.0 995.5
06 13.01 Ю 13-17
{20}
500 м сильная метель ?/? -26.2 -28.0 85 -43 -43 опасность
обморожения
1001.3 994.9
09 13.01 Ю 13-19
{19}
500 м сильная метель ?/? -24.6 -26.3 86 -41 -41 опасность
обморожения
999.9 993.5
12 13.01 Ю 13-17
{19}
500 м сильная метель ?/? -22.5 -24.3 85 -38 -38 опасность
обморожения
998.8 992.5 -22.5 8
15 13.01 Ю 14-19
{19}
200 м сильная метель ?/? -20.4 -22.3 85 -36 -36 опасность
обморожения
997.8 991.6
18 13.01 Ю 13-18
{20}
500 м сильная метель ?/? -21.2 -22.4 90 -37 -37 опасность
обморожения
998.4 992.1
21 13.01 Ю 13-17
{18}
500 м сильная метель ?/? -20.2 -21.4 90 -35 -35 опасность
обморожения
998.0 991.8
00 14.01 Ю 13-17
{18}
500 м сильная метель ?/? -19.5 -20.7 90 -34 -34 опасность
обморожения
998.6 992.4 -22.5 4 77
03 14.01 Ю 10-14
{17}
2000 м метель 10/0
[Ac und]
-19.7 -20.9 90 -33 -33 опасность
обморожения
999.4 993.2
06 14.01 Ю 12-17
{17}
1000 м слаб. снег {метель} 10/6 300 м
[Sc As op]
-18.9 -20.1 90 -33 -33 опасность
обморожения
999.4 993.2
09 14.01 Ю 12-17
{17}
1000 м слаб. снег {метель} 10/6 300 м
[Sc As op]
-18.9 -20.1 90 -33 -33 опасность
обморожения
999.4 993.2
12 14.01 Ю 10-14
{18}
4000 м метель {снег} 9/4 300 м
[Sc Ac trans]
-19.4 -20.6 90 -33 -33 опасность
обморожения
1000.8 994.6 -18.6 1
15 14.01 ЮВ 10-14
{16}
2000 м метель 9/0
[Ac trans]
-18.3 -19.5 90 -31 -31 опасность
обморожения
1000.2 994.0
18 14.01 ЮВ 8-11
{15}
4000 м слаб. ливневой снег {метель} 9/9 420 м
[Cb cap]
-17.6 -19.5 85 -29 -29 по сезону 999.6 993.4
21 14.01 ЮВ 8-11
{14}
4000 м слаб. ливневой снег {метель} 9/9 480 м
[Cb cap]
-16.9 -18.8 85 -28 -28 по сезону 999.0 992.8
00 15.01 ЮВ 5
{12}
20 км {ливн. осадки, метель} 9/0
[Ci fib]
-17.0 -19.6 80 -26 -26 тепло 998.7 992.5 -19.4 1 76
06 15.01 ЮВ 4 4000 м слаб. снег {метель} 10/0
[As op]
-14.5 -15.8 90 -22 -22 тепло 996.3 990.2
09 15.01 Ю 9-12
{12}
20 км сильный позёмок 8/0
[Ac trans Ci fib]
-17.3 -18.5 90 -29 -29 по сезону 995.8 989.6
12 15.01 Ю 9-12
{12}
20 км сильный позёмок 8/0
[Ac trans Ci fib]
-17.3 -18.5 90 -29 -29 по сезону 995.8 989.6
15 15.01 Ю 8-11
{13}
20 км позёмок {снег} 8/0
[Ac trans Ci fib]
-18.7 -20.6 85 -31 -31 опасность
обморожения
996.3 990.1 -14.1 0.8
18 15.01 Ю 6
{11}
4000 м слаб. ливневой снег {метель} 9/8 480 м
[Cb cap Ac trans]
-19.2 -21.1 85 -30 -30 по сезону 996.0 989.8
21 15.01 Ю 3 4000 м слаб. снег {метель} 10/0
[As op]
-15.8 -17.1 90 -23 -23 тепло 996.3 990.2
00 16.01 Ю 3 4000 м слаб. снег {метель} 10/0
[As op]
-16.2 -17.5 90 -23 -23 тепло 996.6 990.5 -19.2 0.4 76

 

Местоположение метеостанции Остров Диксон (Красноярский край, Россия): широта 73.52 долгота 80.40 высота над уровнем моря 56 м.

В архиве по умолчанию представлена погода на Острове Диксон за последнюю неделю. Архивные данные за месяц целиком и за предыдущие месяцы, начиная с января 2011 года, Вы можете получить, выбрав интересующий диапазон дат из раскрывающегося списка и нажав кнопку "Ввод!".


*Определитесь, кто Вы:
робот инопланетянин человек

Внимание! Время в таблицах - всемирное. Для получения местного времени необходимо прибавить поправку, которая равна 7 ч.

Смотрите также архив погоды в соседних городах и на ближайших метеорологических станциях:

Погода в Сопочной Карге (Красноярский край, Россия) (199 км)
Погода на Островах Известий ЦИК (Красноярский край, Россия) (280 км)
Погода в Гыде (Ямало-Ненецкий АО, Россия) (301 км)
Погода на Мысе Стерлегова (Красноярский край, Россия) (329 км)
Погода на Имени Попова (Ямало-Ненецкий АО, Россия) (329 км)
Погода в Тамбее (Ямало-Ненецкий АО, Россия) (365 км)
Погода в Карауле (Красноярский край, Россия) (394 км)
Погода в Крестах Таймырских (Красноярский край, Россия) (437 км)
Погода на Острове Уединения (Красноярский край, Россия) (446 км)
Погода в Сеяхе (Ямало-Ненецкий АО, Россия) (461 км)

Пояснения к столбцам:

Ветер - указаны скорость ветра в м/с - средняя за 10 мин, порывы в срок и между сроками (в фигурных скобках) и направление, откуда дует ветер: С - северный, СВ - северо-восточный, В - восточный, ЮВ - юго-восточный, Ю - южный, ЮЗ - юго-западный, З - западный, СЗ - северо-западный.
Видимость - горизонтальная дальность видимости в метрах или километрах. При видимости от 1 до 10 км при отсутствии осадков обычно наблюдается дымка, при ухудшении видимости до 1 км и менее - туман. В сухую погоду видимость может ухудшаться дымом, пылью или мглою.
Явления - указаны атмосферные явления, наблюдавшиеся в срок или в последний час перед сроком; фигурными скобками обозначены явления, наблюдавшиеся между сроками (за 1-3 часа до срока); квадратными скобками обозначены град или гололедные отложения с указанием их диаметра в мм.
Облачность - указаны через наклонную черту общая и нижняя облачность в баллах и высота нижней границы облаков в метрах; квадратными скобками обозначены формы облаков: Ci - перистые, Cs - перисто-слоистые, Cc - перисто-кучевые, Ac - высококучевые, As - высокослоистые, Sc - слоисто-кучевые, Ns - слоисто-дождевые, Cu - кучевые, Cb - кучево-дождевые. Подробнее классификацию облаков см. в Атласе облаков (PDF).
T - Температура воздуха - температура, измеренная на высоте 2 м над землей.
Td - Температура точки росы - температура, при понижении до которой содержащийся в воздухе водяной пар достигнет насыщения.
f - Относительная влажность воздуха - влажноcть воздуха, измеренная на высоте 2 м над землей.
Te - Эффективная температура - температура, которую ощущает одетый по сезону человек в тени. Характеристика душности погоды. При расчете учитывается влияние влажности воздуха и скорости ветра на теплоощущения человека.
Tes - Эффективная температура на солнце - температура, которую ощущает человек, с поправкой на солнечный нагрев. Характеристика знойности погоды. Зависит от высоты солнца над горизонтом, облачности и скорости ветра. Ночью, в пасмурную погоду, а также при ветре 12 м/с и более поправка равна нулю.
P - Атмосферное давление - приведенное к уровню моря атмосферное давление.
Po - Атмосферное давление - измеренное на уровне метеостанции атмосферное давление.
Tmin - Минимальная температура - минимум температуры воздуха на высоте 2 м над землей.
Tmax - Максимальная температура - максимум температуры воздуха на высоте 2 м над землей.
R - Количество осадков - Количество выпавших осадков за период времени, мм. При наведении курсора мыши на число - период времени, за который выпало указанное количество осадков.
R24 - Количество осадков - Количество выпавших осадков за 24 часа, мм.
S - Снежный покров - Высота снежного покрова, см. При наведении курсора мыши на число - состояние снежного покрова и степень покрытия местности в баллах.